[[{"header":{"parameterUnit":"m.s-1","parameterCategory":1,"la1":30.2991,"la2":30.254,"lo1":-89.0895,"lo2":-89.0444,"dy":0.0017,"dx":0.0017,"nx":28,"ny":28,"refTime":"2024-09-03T03:00:00:Z","depth":0,"parameterNumber":2,"parameterNumberName":"U-component_of_WINDS"},"data":[0,0,0,0,0,0,0,0,0,0,0,0,0,0,0,0,0,0,0,0,0,0,0,0,0,0,0,0,0,0,0,0,0,0,0,0,0,0,0,0,0,0,0,0,0,0,0,0,0,0,0,0,0,0,0,0,0,0,-2.09,-2.0901,0,-2.0956,-2.0957,-2.0957,-2.0893,-2.0891,-2.0888,-2.0886,-2.0946,-2.095,-2.0954,0,0,0,0,0,0,0,0,0,0,0,0,0,-2.0741,-2.0744,-2.09,-2.0901,-2.0902,-2.0956,-2.0957,-2.0957,-2.0894,-2.0891,-2.0888,-2.0885,-2.0945,-2.0949,-2.0954,0,0,0,0,0,0,0,0,0,0,0,0,0,-2.0805,-2.0745,-2.09,-2.0876,-2.0875,-2.0956,-2.0957,-2.0958,-2.0894,-2.0891,-2.0887,-2.0884,-2.0943,-2.0949,-2.0955,-2.1063,0,0,-2.0972,-2.0975,0,0,0,0,0,0,0,0,-2.0801,-2.0811,-2.0879,-2.0878,-2.0876,-2.0914,-2.0922,-2.0993,-2.0895,-2.0887,-2.0886,-2.0882,-2.0939,-2.0944,-2.0963,-2.1065,-2.1068,-2.0973,-2.0976,-2.0979,-2.098,0,0,0,0,0,0,0,-2.0797,-2.0808,-2.0922,-2.088,-2.0879,-2.0864,-2.0869,-2.0935,-2.0933,-2.0887,-2.0883,-2.089,-2.0937,-2.0958,-2.0964,-2.1069,-2.0973,-2.0978,-2.0981,-2.0984,-2.1263,-2.1267,0,0,0,0,0,0,-2.0795,-2.0805,-2.0921,-2.0924,-2.0829,-2.0869,-2.0875,-2.0906,-2.0932,-2.0932,-2.0893,-2.0887,-2.0949,-2.0957,-2.0966,-2.1095,-2.0979,-2.0984,-2.0987,-2.1259,-2.1264,-2.1268,0,0,0,0,0,0,-2.0792,-2.0806,-2.0918,-2.0863,-2.0876,-2.0876,-2.0911,-2.0909,-2.0929,-2.0936,-2.0935,-2.0915,-2.0947,-2.0958,-2.1039,-2.1096,-2.0987,-2.0992,-2.1254,-2.1261,-2.1266,-2.1353,0,0,0,0,0,0,-2.0787,-2.0805,-2.0846,-2.0864,-2.0879,-2.099,-2.0914,-2.0912,-2.0939,-2.0931,-2.0956,-2.0956,-2.0945,-2.1031,-2.1045,-2.1102,-2.0996,-2.1249,-2.1257,-2.1264,-2.1345,-2.1361,-2.1375,0,0,0,0,0,-2.0782,-2.0869,-2.0848,-2.0863,-2.093,-2.0994,-2.1002,-2.0987,-2.0943,-2.0985,-2.0989,-2.0956,-2.1087,-2.104,-2.1055,-2.1115,-2.1246,-2.1255,-2.1264,-2.1338,-2.1358,-2.1375,0,0,0,0,0,0,-2.0858,-2.0871,-2.0848,-2.0943,-2.0968,-2.0983,-2.1034,-2.1008,-2.1046,-2.1037,-2.1017,-2.1023,-2.1109,-2.112,-2.1067,-2.122,-2.1159,-2.1172,-2.1211,-2.123,-2.1244,-2.1241,-2.1001,0,0,0,0,0,-2.0885,-2.0935,-2.0944,-2.1027,-2.104,-2.1035,-2.1062,-2.1048,-2.1073,-2.1083,-2.1093,-2.112,-2.1167,-2.1198,-2.1242,-2.1345,-2.135,-2.1394,-2.1409,-2.1421,-2.1433,-2.1489,-2.1508,-2.1298,-2.1297,-2.1297,0,0,-2.0944,-2.0957,-2.099,-2.1043,-2.106,-2.1113,-2.1045,-2.1103,-2.1143,-2.1092,-2.117,-2.1178,-2.1206,-2.1299,-2.134,-2.131,-2.1491,-2.1432,-2.1442,-2.1447,-2.15,-2.152,-2.1538,-2.1304,-2.1302,-2.1301,0,0,-2.1077,-2.1091,-2.1162,-2.118,-2.1207,-2.1203,-2.122,-2.1239,-2.1242,-2.1319,-2.1282,-2.1329,-2.141,-2.1432,-2.1453,-2.1593,-2.1564,-2.1608,-2.1687,-2.1741,-2.1758,-2.1773,-2.1824,-2.1842,-2.1619,-2.1619,-2.1619,0,-2.1146,-2.1223,-2.1202,-2.1264,-2.1288,-2.1243,-2.1316,-2.1335,-2.1375,-2.1393,-2.1358,-2.1459,-2.1475,-2.1572,-2.1606,-2.1625,-2.1645,-2.1606,-2.1757,-2.1772,-2.1785,-2.1834,-2.1853,-2.1624,-2.1624,-2.1623,-2.1623,0,-2.1308,-2.1362,-2.1416,-2.1455,-2.1485,-2.1552,-2.1542,-2.1575,-2.1557,-2.1557,-2.1637,-2.1653,-2.17,-2.1721,-2.1705,-2.1817,-2.1797,-2.176,-2.1699,-2.1811,-2.1856,-2.1875,-2.1632,-2.163,-2.1628,-2.1627,0,0,-2.1493,-2.1518,-2.1538,-2.1555,-2.158,-2.1622,-2.1686,-2.1731,-2.1761,-2.1789,-2.1843,-2.1912,-2.1878,-2.1902,-2.1888,-2.1936,-2.2047,-2.1893,-2.1893,-2.1922,-2.2172,-2.2201,-2.2223,-2.2026,-2.203,-2.2033,-2.217,0,-2.1628,-2.1739,-2.1721,-2.1829,-2.1879,-2.1836,-2.1892,-2.1914,-2.1916,-2.1959,-2.196,-2.201,-2.196,-2.1974,-2.202,-2.2024,-2.2097,-2.2013,-2.2078,-2.2081,-2.2075,-2.2247,-2.2278,-2.2407,-2.2188,-2.2191,-2.2193,0,-2.18,-2.1834,-2.1947,-2.1964,-2.1984,-2.2035,-2.2074,-2.2115,-2.2139,-2.2136,-2.2163,-2.214,-2.2205,-2.214,-2.223,-2.2174,-2.2199,-2.2205,-2.2209,-2.2216,-2.2145,-2.226,-2.2448,-2.2468,-2.222,-2.2218,-2.2216,0,-2.1926,-2.2,-2.2076,-2.2092,-2.2113,-2.215,-2.2161,-2.2181,-2.2208,-2.2242,-2.226,-2.2302,-2.2325,-2.2358,-2.2346,-2.23,-2.2439,-2.2374,-2.244,-2.2441,-2.2473,-2.2472,-2.2669,-2.2486,-2.2486,-2.2486,-2.2485,0,-2.208,-2.2151,-2.2133,-2.2181,-2.2259,-2.2238,-2.2316,-2.2322,-2.234,-2.2388,-2.2353,-2.2399,-2.238,-2.2426,-2.2417,-2.2493,-2.2503,-2.2504,-2.2501,-2.2508,-2.2509,-2.2526,-2.2518,-2.2491,-2.249,-2.2489,-2.2488,0,-2.2235,-2.2225,-2.2307,-2.2319,-2.2324,-2.2382,-2.2393,-2.2438,-2.2435,-2.2497,-2.251,-2.2507,-2.2558,-2.2549,-2.2606,-2.26,-2.2696,-2.2681,-2.2688,-2.2685,-2.2753,-2.2747,-2.297,-2.2999,-2.2796,-2.2798,-2.2799,0,-2.2335,-2.2388,-2.2406,-2.2435,-2.2448,-2.2496,-2.2524,-2.2504,-2.2535,-2.2565,-2.2607,-2.2654,-2.2692,-2.2776,-2.2779,-2.2823,-2.281,-2.2885,-2.2816,-2.2822,-2.2813,-2.2811,-2.2817,-2.29,-2.2902,-2.2904,-2.2905,0,-2.2513,-2.2505,-2.2546,-2.2585,-2.2619,-2.2649,-2.2676,-2.2702,-2.2685,-2.2721,-2.2772,-2.2801,-2.2858,-2.2907,-2.2947,-2.2958,-2.293,-2.2926,-2.2944,-2.2953,-2.2956,-2.2957,-2.2727,-2.2922,-2.292,-2.2919,-2.2918,-2.2917,-2.2645,-2.269,-2.271,-2.2756,-2.2774,-2.2799,-2.2842,-2.2844,-2.2886,-2.2931,-2.2917,-2.2976,-2.2998,-2.3048,-2.3064,-2.3111,-2.3083,-2.3109,-2.3115,-2.3123,-2.3131,-2.2946,-2.3118,-2.3117,-2.3117,-2.3116,-2.3116,0,-2.2823,-2.2833,-2.2875,-2.2913,-2.295,-2.2917,-2.2945,-2.2978,-2.303,-2.3052,-2.3089,-2.3149,-2.3195,-2.3201,-2.3245,-2.3281,-2.3269,-2.3293,-2.3292,-2.3295,-2.3153,-2.3134,-2.3302,-2.3302,-2.3302,-2.3302,-2.3302,-2.3302,-2.292,-2.2996,-2.299,-2.3074,-2.3084,-2.314,-2.3159,-2.3183,-2.32,-2.3268,-2.3306,-2.3308,-2.3324,-2.3369,-2.341,-2.3411,-2.3429,-2.346,-2.3455,-2.3323,-2.3305,-2.3287,-2.3269,-2.3463,-2.3463,-2.3593,-2.3595,-2.3596]},{"header":{"parameterUnit":"m.s-1","parameterCategory":1,"la1":30.2991,"la2":30.254,"lo1":-89.0895,"lo2":-89.0444,"dy":0.0017,"dx":0.0017,"nx":28,"ny":28,"refTime":"2024-09-03T03:00:00:Z","depth":0,"parameterNumber":3,"parameterNumberName":"V-component_of_WINDS"},"data":[0,0,0,0,0,0,0,0,0,0,0,0,0,0,0,0,0,0,0,0,0,0,0,0,0,0,0,0,0,0,0,0,0,0,0,0,0,0,0,0,0,0,0,0,0,0,0,0,0,0,0,0,0,0,0,0,0,0,-3.1794,-3.1794,0,-3.1791,-3.1791,-3.1791,-3.1735,-3.1734,-3.1732,-3.1731,-3.1728,-3.1729,-3.173,0,0,0,0,0,0,0,0,0,0,0,0,0,-3.1752,-3.1753,-3.1794,-3.1794,-3.1794,-3.1791,-3.1791,-3.1791,-3.1735,-3.1734,-3.1732,-3.173,-3.1728,-3.1729,-3.1731,0,0,0,0,0,0,0,0,0,0,0,0,0,-3.1762,-3.1754,-3.1794,-3.1766,-3.1764,-3.1791,-3.1791,-3.1791,-3.1736,-3.1734,-3.1731,-3.1729,-3.1727,-3.1729,-3.1731,-3.1785,0,0,-3.1736,-3.1737,0,0,0,0,0,0,0,0,-3.1761,-3.1764,-3.177,-3.1768,-3.1765,-3.1761,-3.1775,-3.1789,-3.1736,-3.1746,-3.1731,-3.1728,-3.1741,-3.1741,-3.1745,-3.1785,-3.1784,-3.1737,-3.1738,-3.1739,-3.1739,0,0,0,0,0,0,0,-3.1761,-3.1763,-3.1793,-3.177,-3.1767,-3.1753,-3.1752,-3.1777,-3.1756,-3.1745,-3.1741,-3.1742,-3.1739,-3.1744,-3.1745,-3.1784,-3.1737,-3.1738,-3.1739,-3.174,-3.1866,-3.1868,0,0,0,0,0,0,-3.1764,-3.1763,-3.1793,-3.1793,-3.1758,-3.1756,-3.1755,-3.1765,-3.1755,-3.1752,-3.1743,-3.1739,-3.1742,-3.1743,-3.1745,-3.1806,-3.1739,-3.174,-3.1741,-3.1864,-3.1867,-3.1869,0,0,0,0,0,0,-3.1763,-3.1767,-3.1793,-3.1777,-3.1779,-3.1759,-3.177,-3.1766,-3.177,-3.1754,-3.1749,-3.1752,-3.174,-3.1742,-3.1775,-3.1805,-3.1741,-3.1743,-3.1861,-3.1865,-3.1868,-3.193,0,0,0,0,0,0,-3.1762,-3.1767,-3.1788,-3.1778,-3.178,-3.1824,-3.1772,-3.1767,-3.1774,-3.1768,-3.1761,-3.1758,-3.1738,-3.1772,-3.1777,-3.1807,-3.1744,-3.1858,-3.1863,-3.1867,-3.1925,-3.1935,-3.1944,0,0,0,0,0,-3.1761,-3.1806,-3.1789,-3.1793,-3.1805,-3.1826,-3.1827,-3.1804,-3.1776,-3.1797,-3.1786,-3.1758,-3.1801,-3.1776,-3.1781,-3.1812,-3.1856,-3.1862,-3.1866,-3.1921,-3.1933,-3.1944,0,0,0,0,0,0,-3.1821,-3.1804,-3.1786,-3.1829,-3.1829,-3.1816,-3.1841,-3.1818,-3.1826,-3.182,-3.1791,-3.179,-3.1827,-3.1823,-3.1795,-3.1862,-3.1824,-3.183,-3.1864,-3.1875,-3.1885,-3.1885,-3.1746,0,0,0,0,0,-3.184,-3.1857,-3.1842,-3.1881,-3.1882,-3.1862,-3.187,-3.1852,-3.1851,-3.1851,-3.1842,-3.1842,-3.1856,-3.1865,-3.1877,-3.1924,-3.1922,-3.1948,-3.1957,-3.1965,-3.197,-3.1994,-3.2005,-3.1885,-3.1885,-3.1885,0,0,-3.1878,-3.1871,-3.1884,-3.1893,-3.1891,-3.191,-3.1862,-3.1884,-3.1898,-3.1854,-3.1884,-3.1878,-3.1876,-3.1916,-3.1933,-3.1914,-3.2003,-3.1971,-3.1977,-3.1979,-3.2,-3.2011,-3.2021,-3.1889,-3.1888,-3.1888,0,0,-3.1956,-3.1953,-3.1985,-3.1983,-3.1981,-3.1966,-3.1974,-3.1965,-3.1959,-3.1988,-3.1955,-3.1971,-3.1995,-3.1995,-3.1998,-3.2075,-3.2049,-3.2079,-3.2127,-3.2151,-3.216,-3.2168,-3.2195,-3.2205,-3.2085,-3.2085,-3.2085,0,-3.2004,-3.2031,-3.2004,-3.2028,-3.2033,-3.1993,-3.2025,-3.2025,-3.2026,-3.203,-3.2008,-3.2036,-3.2033,-3.2071,-3.209,-3.2094,-3.2101,-3.208,-3.2161,-3.2169,-3.2176,-3.2201,-3.2211,-3.2089,-3.2088,-3.2088,-3.2088,0,-3.2089,-3.2108,-3.2134,-3.2135,-3.2142,-3.217,-3.2148,-3.2158,-3.2139,-3.2128,-3.2158,-3.2151,-3.216,-3.2168,-3.2151,-3.2204,-3.2192,-3.2166,-3.2126,-3.2191,-3.2214,-3.2224,-3.2094,-3.2093,-3.2092,-3.2091,0,0,-3.2206,-3.2191,-3.2201,-3.2201,-3.2194,-3.2208,-3.2233,-3.2242,-3.2251,-3.2253,-3.2273,-3.2294,-3.2269,-3.2272,-3.2254,-3.2275,-3.2334,-3.2245,-3.2245,-3.2262,-3.2392,-3.2411,-3.2423,-3.2317,-3.2319,-3.232,-3.2392,0,-3.2281,-3.2323,-3.23,-3.2345,-3.2361,-3.2323,-3.2345,-3.2344,-3.2333,-3.2345,-3.2333,-3.2348,-3.2315,-3.2316,-3.2335,-3.2323,-3.236,-3.2318,-3.2335,-3.2336,-3.2336,-3.2435,-3.2455,-3.2523,-3.2401,-3.2402,-3.2403,0,-3.2375,-3.2379,-3.2426,-3.2415,-3.2421,-3.2441,-3.2445,-3.2458,-3.2455,-3.2445,-3.2449,-3.2425,-3.2448,-3.241,-3.2441,-3.2413,-3.2419,-3.2414,-3.2416,-3.2416,-3.2373,-3.2437,-3.2544,-3.2554,-3.2417,-3.2416,-3.2415,0,-3.2454,-3.2472,-3.2502,-3.2503,-3.2491,-3.2506,-3.2501,-3.2496,-3.2502,-3.2506,-3.2509,-3.2517,-3.2521,-3.2527,-3.2505,-3.2479,-3.254,-3.2499,-3.2532,-3.2533,-3.2546,-3.2546,-3.2655,-3.2551,-3.2551,-3.2551,-3.2551,0,-3.254,-3.257,-3.2538,-3.2556,-3.2588,-3.256,-3.2593,-3.2584,-3.258,-3.2595,-3.2563,-3.2579,-3.255,-3.2563,-3.2546,-3.2574,-3.2576,-3.2569,-3.2564,-3.2572,-3.2573,-3.2575,-3.2569,-3.2554,-3.2553,-3.2553,-3.2552,0,-3.2634,-3.2614,-3.2644,-3.2629,-3.2626,-3.265,-3.2638,-3.2654,-3.264,-3.2661,-3.2664,-3.2643,-3.2656,-3.2635,-3.2646,-3.2635,-3.2674,-3.2662,-3.2675,-3.2671,-3.2705,-3.2701,-3.2819,-3.2832,-3.2721,-3.2722,-3.2723,0,-3.269,-3.2712,-3.2699,-3.2707,-3.2704,-3.2718,-3.2723,-3.2696,-3.2703,-3.27,-3.2717,-3.2727,-3.2733,-3.2756,-3.2742,-3.275,-3.2737,-3.2778,-3.2738,-3.2745,-3.2737,-3.2736,-3.2737,-3.2786,-3.2787,-3.2789,-3.2789,0,-3.2791,-3.278,-3.2789,-3.2794,-3.2801,-3.2803,-3.2804,-3.2812,-3.2784,-3.2793,-3.2806,-3.2811,-3.2821,-3.2831,-3.2835,-3.283,-3.2805,-3.2802,-3.281,-3.2817,-3.2823,-3.2819,-3.2696,-3.2799,-3.2798,-3.2798,-3.2797,-3.2797,-3.2868,-3.2885,-3.2878,-3.2888,-3.2885,-3.2886,-3.29,-3.2888,-3.2897,-3.2903,-3.2887,-3.2903,-3.2898,-3.29,-3.2898,-3.291,-3.2892,-3.2904,-3.2907,-3.291,-3.2915,-3.2822,-3.2911,-3.2911,-3.2911,-3.291,-3.291,0,-3.2966,-3.2959,-3.2969,-3.297,-3.2978,-3.2953,-3.2952,-3.296,-3.2974,-3.2971,-3.2978,-3.2991,-3.3001,-3.2987,-3.2994,-3.3006,-3.2995,-3.3009,-3.3007,-3.3006,-3.2931,-3.2923,-3.3018,-3.3018,-3.3018,-3.3018,-3.3018,-3.3018,-3.3018,-3.3045,-3.3032,-3.3057,-3.305,-3.3065,-3.3066,-3.3067,-3.3064,-3.308,-3.3087,-3.3078,-3.307,-3.3076,-3.3084,-3.3079,-3.3083,-3.3101,-3.3093,-3.3022,-3.3012,-3.3002,-3.2994,-3.3102,-3.3102,-3.3167,-3.3167,-3.3168]}]]